ATLAS 5 CENTAUR DEB, 53516

Orbit data source: Space-Track

ATLAS 5 CENTAUR DEB, 53516 is space debris in HEO originally from a launch on Wed, 17 Sep 2014 UTC launched from the Air Force Eastern Test Range (AFETR). Debris objects in space refer to the collection of defunct objects orbiting the Earth. Examples of debris include non-operational satellites, rocket bodies, and fragments generated from explosions, collisions, or faulty payload assembly.

Loading next visibility...
Identifier
53516, 2014-055DP
Orbit
HEO
Country
Flag of USUS
Related business
Flag of USUnited Launch Alliance/Lockheed Martin (US)
Manufacturer
Unknown
Mission
Spacecraft
Bus & Motor
Unknown
Mass
Unknown
Launch date (UTC)
2014-09-17 (11 years ago)
Launch vehicle
Unknown
Launch site
Air Force Eastern Test Range (AFETR)
Object type
Payload
Rocket body
Debris
Shape & HBR
Unknown shape, 1.1 m
Radar Cross Section
Small (<0.1 m²)

Expand to show TLE details & history
Last TLE update: 2 months ago

TLE from 2 months ago
0 ATLAS 5 CENTAUR DEB
1 53516U 14055DP  25231.72136660 -.00000028  00000-0  00000-0 0  9990
2 53516  19.3852 185.0270 4828959  91.5241 322.0480  1.82544658 20576
Epoch: 2025-08-19T17:18Z
TLE epoch observation values (Epoch: 2025-08-19T17:18:46.074Z)
Latitude
-0.00002°
Longitude
-43.08495°
Altitude
15,621.824 km
Speed
4.706 km/s
True Right ascension
12h 19m 39s
True Declination
0° 00' 00"
Sunlit
Object was in daylight at epoch
Visualization orbit readout
Latitude
Unknown
Longitude
Unknown
Altitude
Unknown
Speed
Unknown
Apparent Right ascension
Unknown
Apparent Declination
Unknown
Sunlit
N/A
Visualization observer readout
Local Sidereal Time
16:55:30
Azimuth
Unknown
Elevation
Unknown
Doppler factor
Unknown
Orbital elements
Apogee altitude
35,561.991 km
Perigee altitude
8,246.903 km
Semi-major axis
28,282.584 km
Eccentricity
0.4829
Inclination
19.3852°
RAAN
185.027°
Arg. of periapsis
91.5241°
True anomaly
268.44956°
Mean anomaly
322.048°
Eccentric anomaly
297.50808°
Mean motion
0.45631 °/min
Orbital period
788.93 mins
BSTAR
0
Loading maneuver chart data...
Computing Atmospheric mass density...

Documentation

Showing up to 5 results
|